map of AGA home
Great Circle Mapper logo
AGA - Airport
Location
City:  Agadir, Morocco
Name:Al Massira
ICAO / IATA:GMAD / AGA

Details
Type:Airport (Aerodrome, Airfield)
Use:Public/Civil, International (customs port of entry)
Latitude:3019'30"N (30.324997)
Longitude:924'47"W (-9.413066)
Datum:WGS 1984
Elevation:250 ft (76 m)
Variation:2.76W (WMM2015 magnetic declination)
0.11 annual change
Runways:1
Longest:10499 × 148 ft (3200 × 45 m), paved

Time
Time Zone:UTC+0 (DST+1)
Local Time:

Weather
METAR:GMAD 280130Z 26005KT 9999 SCT010 BKN016 19/16 Q1014 NOSIG
TAF:GMAD 272300Z 2800/2906 23006KT 8000 SCT016
TEMPO 2804/2810 BKN013
BECMG 2812/2814 27012KT
BECMG 2818/2820 20008KT

Related Locations
Nearby:
Farthest:NLK: 12259 mi / 19729 km
Norfolk Island, NF

Find:

   beyond  
but within

Other Information
Maps:
NOTAMs:
Links:
Sources:

  
flag of Morocco   

Sectional Chart

Flight Planning
at skyvector.com

Satellite Image

Google Maps Satellite View

 

Copyright © 2004-2015 Karl L. Swartz. All rights reserved.
The Great Circle Mapper name and logo are trademarks of the Great Circle Mapper.
All other trademarks mentioned herein belong to their respective owners.
Please see credits for attibutions and further copyright information.

  Follow gcmap on Facebook Follow gcmap on Twitter Follow gcmap on Google+

hCard Microformat

Geo Microformat